Temperature
22 21 21 21 21 20 20 20 21 21 21 20 19 19 19 19 18 18 18 18 18 18 18 18 18 18 18 17 17 17 17 17 17 17 18 18 19 19 18 18 18 19 19
21 21 20 20 20 20 20 19 20 20 20 20 20 19 19 18 18 18 18 18 18 18 17 17 17 17 17 17 17 17 17 17 17 17 18 19 20 19 19 18 18 18 18
20 20 19 19 19 19 19 19 19 19 19 19 19 18 18 18 18 18 18 18 18 18 17 16 16 16 17 16 17 17 17 16 16 16 16 18 19 19 19 18 18 17 17
20 19 19 18 18 18 18 18 18 18 18 19 18 18 18 18 18 18 18 18 18 17 16 16 16 16 16 16 16 16 16 16 16 16 16 16 16 16 17 18 18 17 17
20 19 18 18 17 17 17 17 17 18 18 18 18 17 17 17 17 17 17 17 17 16 15 15 15 15 15 16 16 16 16 16 15 16 16 15 16 15 15 17 17 17 17
20 19 18 18 17 17 17 17 17 17 17 17 17 17 17 17 17 17 16 16 16 15 15 15 15 15 15 15 15 15 15 15 15 15 15 15 15 15 15 15 16 16 16
21 20 19 18 17 17 17 16 16 16 16 16 16 16 16 16 16 16 15 15 15 15 15 15 15 14 15 15 15 15 15 15 15 15 15 15 15 15 15 15 15 15 16
21 20 19 19 18 17 16 16 16 16 16 15 15 15 15 15 15 15 15 15 15 15 14 14 14 14 14 14 14 14 14 14 15 15 15 15 14 14 14 14 14 15 15
20 20 19 18 18 17 16 16 15 15 15 15 15 15 15 15 14 14 14 14 14 14 14 14 14 14 14 14 14 14 14 14 14 14 14 14 14 14 14 14 14 14 15
20 19 18 17 16 16 15 15 14 14 14 14 14 14 14 14 13 13 13 13 13 13 13 13 13 13 13 13 13 13 13 14 14 14 14 14 14 14 13 13 13 13 14
20 19 18 17 16 15 15 14 14 14 14 14 14 13 13 13 12 12 12 12 12 13 13 13 13 13 12 12 13 13 13 13 13 13 13 13 13 13 13 13 13 13 13
19 18 17 16 15 15 14 14 13 13 13 13 13 12 12 12 12 11 11 11 12 12 12 12 12 12 12 12 12 12 12 12 12 12 12 12 12 12 12 13 13 13 13
18 17 16 15 15 14 13 13 13 13 12 12 12 12 12 11 11 10 10 11 11 12 12 12 12 12 12 12 12 12 12 12 12 12 12 12 12 12 12 12 12 13 13
18 17 16 15 14 13 13 13 12 12 12 12 12 11 11 11 10 10 10 11 11 12 12 12 11 12 12 12 12 11 11 11 11 11 11 11 11 11 11 12 12 12 12
18 17 16 14 13 13 12 12 12 12 12 12 11 11 11 11 10 10 10 11 11 11 12 12 11 11 11 11 11 11 11 11 11 11 11 11 11 11 11 11 11 12 12
18 17 15 14 13 13 12 12 12 12 12 11 11 11 11 11 11 11 11 11 11 11 11 11 11 12 12 12 11 11 11 11 11 11 11 11 11 11 11 11 12 12 12
18 17 15 14 13 13 12 12 12 12 12 11 11 11 11 11 11 11 11 11 11 11 11 11 12 12 12 11 11 11 11 11 11 11 11 11 11 11 11 11 11 11 11
17 16 15 14 13 13 12 12 12 12 12 11 12 12 12 11 11 11 11 11 11 11 11 11 11 12 11 11 11 11 11 11 10 10 10 10 10 11 10 10 11 11 11
17 16 15 14 13 13 12 12 12 12 12 12 12 12 11 11 11 11 11 11 11 11 11 11 11 11 11 11 11 11 10 10 10 10 10 10 10 10 10 10 10 10 10
16 16 15 14 13 13 12 12 12 12 12 12 11 11 11 11 11 11 11 11 11 11 11 11 11 11 11 11 10 10 10 10 10 10 10 10 10 10 10 10 10 10 10
16 16 15 14 13 12 12 11 12 12 12 11 11 11 11 11 11 11 11 11 10 10 10 11 10 10 10 10 10 10 10 10 10 10 10 10 10 10 10 9 9 10 10
15 15 15 14 13 12 11 11 11 11 11 11 11 11 11 11 10 11 10 10 10 10 10 10 10 10 10 10 10 10 10 9 9 10 10 9 9 9 9 9 9 9 10
15 15 15 14 13 12 11 11 11 11 11 11 11 11 10 10 10 10 10 10 10 10 10 10 10 10 9 9 9 9 9 9 9 9 9 9 9 8 8 8 8 9 9
15 14 14 14 13 12 11 11 11 11 10 10 10 10 10 10 10 10 10 10 10 10 10 10 10 9 9 9 9 9 9 9 8 8 8 8 8 8 8 8 8 8 8
15 14 14 14 13 12 12 11 11 10 10 10 10 10 10 10 10 10 10 10 10 10 10 10 10 9 9 9 9 9 8 9 8 8 8 9 9 9 9 8 8 8 8
14 14 14 14 13 12 12 11 11 10 10 10 10 10 10 10 10 10 9 9 9 9 9 9 9 9 9 9 9 9 8 8 8 9 9 9 9 9 9 9 8 8 7
Wind_Speed
0 1 3 5 8 10 13 14 15 15 13 12 12 12 12 12 11 10 11 11 12 12 10 10 9 9 8 9 10 9 11 10 9 11 13 13 14 14 13 13 14 14 14
2 2 2 3 5 7 9 12 14 14 15 13 12 11 11 10 9 6 5 6 7 8 8 9 8 8 7 8 9 8 8 8 7 9 10 10 10 9 10 10 10 11 10
5 5 5 4 5 5 6 7 10 12 14 14 12 9 8 7 7 6 6 6 6 6 5 6 6 6 8 8 8 7 8 8 7 7 7 7 9 7 6 8 8 9 8
6 7 7 7 7 6 6 7 8 9 11 12 13 15 12 11 11 8 7 7 6 6 6 6 6 7 8 7 7 7 7 7 7 6 7 9 8 7 8 8 7 8 8
6 6 7 7 7 7 7 7 7 8 8 10 12 13 13 11 9 8 9 8 7 7 7 6 6 8 8 6 5 5 6 6 7 6 7 8 8 10 8 10 9 8 7
5 5 5 6 6 7 7 8 8 8 8 9 10 12 13 12 10 10 9 9 7 8 10 9 9 9 7 7 6 6 6 6 6 6 6 6 6 6 6 7 9 8 6
6 7 8 8 8 8 8 8 9 10 10 10 10 11 12 11 11 10 10 9 8 8 9 9 8 8 8 7 6 6 5 5 5 5 5 4 4 5 5 6 7 7 5
8 9 9 10 10 10 9 9 10 10 11 10 10 9 9 8 7 8 8 9 7 7 8 8 8 8 8 7 6 6 5 4 4 3 2 1 2 3 3 4 5 6 4
10 11 11 11 11 11 11 10 10 11 11 11 10 9 9 7 6 6 6 5 6 6 7 7 7 6 6 6 6 4 4 3 2 1 1 1 1 2 3 3 4 5 6
11 11 11 11 11 11 11 10 9 10 10 10 9 7 7 5 4 4 4 4 5 5 6 6 6 5 5 5 5 4 2 2 1 1 1 2 2 3 3 4 4 4 5
11 10 10 10 10 10 9 7 7 7 7 8 7 4 3 3 4 3 3 3 3 4 5 5 5 5 5 4 4 3 3 2 3 3 3 4 4 4 4 4 4 4 5
10 10 9 9 8 8 6 5 4 4 4 5 4 2 2 4 4 3 2 1 3 3 4 5 5 5 5 4 4 5 5 5 6 6 5 5 4 5 5 6 6 5 5
10 9 8 7 6 5 4 3 2 2 3 4 5 6 5 6 5 3 1 1 3 4 5 6 6 6 6 6 7 7 7 7 7 6 6 6 6 6 6 7 7 6 6
9 8 7 5 4 3 3 2 1 1 2 2 4 5 5 4 5 3 3 4 5 6 7 7 7 7 8 8 9 8 8 8 8 7 7 8 8 8 8 6 7 7 7
10 8 6 5 4 4 4 4 3 2 1 1 2 5 6 7 7 8 7 6 6 7 7 8 8 8 8 8 9 10 10 10 10 9 9 9 8 8 8 8 9 9 8
10 8 6 6 6 6 6 6 4 3 3 3 4 8 9 9 9 9 8 8 7 8 8 9 9 10 9 10 10 9 11 10 10 9 8 8 8 7 7 8 9 10 10
9 8 7 7 7 7 7 7 5 4 4 4 4 7 10 10 10 10 9 8 8 9 9 9 10 11 9 9 10 8 10 10 9 9 8 9 9 8 8 6 5 9 8
8 8 8 8 8 8 8 7 6 5 4 4 4 7 9 11 10 9 9 8 8 8 9 9 11 11 9 8 8 7 10 10 9 9 9 9 9 9 8 7 9 10 10
8 8 9 9 9 9 9 9 8 7 6 5 5 7 9 11 11 11 11 9 8 9 9 9 11 11 9 6 4 2 8 8 8 8 8 8 9 12 13 6 7 7 6
9 9 9 10 10 10 9 10 10 9 8 6 6 7 8 10 11 11 11 10 9 9 9 9 10 10 9 6 2 2 4 6 5 6 6 11 10 11 13 7 7 7 6
11 11 11 11 11 11 10 11 10 10 9 7 7 7 8 8 9 9 9 10 9 9 9 10 9 8 8 7 3 3 2 3 3 3 4 6 10 10 11 8 7 6 7
13 13 13 12 12 12 12 12 11 9 9 9 9 9 9 9 9 9 9 10 10 11 10 10 9 8 7 7 7 7 6 4 2 1 3 6 7 7 8 7 8 10 9
14 14 15 14 13 13 13 12 11 10 10 10 10 10 10 9 9 10 10 10 10 10 10 10 9 8 8 7 6 6 4 4 1 3 6 4 1 2 4 6 7 7 6
14 15 16 15 15 14 14 12 11 11 12 12 11 11 11 10 10 9 9 10 10 10 10 10 9 9 8 8 7 6 5 5 4 4 5 4 2 2 3 2 2 6 7
12 15 17 17 17 16 15 13 12 12 13 13 12 12 11 10 10 9 7 8 9 8 9 9 9 10 9 7 5 1 3 3 4 4 6 6 5 4 4 4 5 6 6
12 15 18 18 18 17 16 15 14 14 14 13 12 11 10 10 10 10 9 6 5 9 6 4 4 6 10 13 8 5 4 2 1 4 5 5 4 4 4 4 5 5 7
Wind_Direction
71 225 244 241 236 228 225 223 223 216 215 218 220 222 226 229 233 238 250 263 270 273 268 262 263 260 258 264 271 272 273 272 278 281 281 276 266 260 260 262 266 266 262
1 347 314 286 264 251 242 237 231 227 221 224 224 228 233 233 231 233 246 267 277 279 274 271 265 262 265 265 266 266 278 281 276 279 291 289 280 256 251 255 259 268 270
16 9 1 352 330 307 285 270 259 247 236 235 231 228 226 226 222 218 220 225 234 249 240 250 257 264 261 256 254 258 256 266 271 263 272 289 296 316 277 264 264 266 270
31 22 13 5 353 341 326 308 290 271 256 244 238 230 227 227 226 216 214 213 208 220 224 221 231 244 248 247 247 248 256 258 270 266 254 260 276 279 287 274 266 265 264
24 15 6 357 349 342 335 326 313 298 281 262 250 243 241 240 234 218 206 199 193 201 211 216 217 227 235 237 245 247 256 260 271 279 278 275 269 258 263 281 287 284 275
6 357 348 342 338 334 331 328 320 306 293 275 262 250 245 243 233 215 203 196 194 196 202 206 217 223 226 222 231 243 246 264 276 280 280 280 280 281 273 280 290 290 287
332 327 325 326 324 323 325 321 315 307 299 286 273 262 254 246 232 219 203 195 197 199 198 198 211 218 218 221 231 237 257 261 271 278 285 292 298 303 298 291 296 295 298
301 303 305 307 308 310 312 311 308 303 298 289 281 272 258 245 233 216 203 194 198 195 189 197 211 218 217 220 227 239 239 251 258 274 303 320 343 344 342 328 319 313 309
296 294 295 297 298 300 302 303 303 302 299 293 281 267 252 238 217 194 191 187 183 179 186 194 204 209 212 221 230 228 233 239 236 219 213 303 318 315 336 341 341 334 332
298 297 294 292 293 294 295 297 299 303 306 301 287 269 246 216 182 168 166 169 170 170 179 184 186 191 201 209 222 204 190 210 119 86 47 4 350 325 315 321 323 320 318
304 304 300 296 293 289 290 294 304 314 322 325 315 282 228 168 147 140 136 148 166 172 172 176 177 182 189 191 196 178 156 129 89 66 52 38 15 355 347 340 326 317 308
300 301 301 300 295 291 290 290 300 324 348 359 6 18 89 108 94 74 68 132 160 161 161 167 165 165 164 166 155 129 105 90 78 65 55 40 32 18 8 355 352 344 326
294 299 301 302 299 297 286 282 299 346 14 30 54 63 71 86 83 66 66 156 150 146 148 150 146 141 136 125 109 99 89 80 70 62 56 46 35 25 21 6 3 351 341
290 294 297 293 290 280 270 263 262 343 24 51 89 99 104 112 127 159 188 178 155 142 136 133 129 125 118 110 103 97 90 84 77 68 58 46 38 26 12 12 12 2 356
289 288 284 274 262 247 240 247 252 260 311 295 152 160 162 170 171 176 179 165 148 136 131 128 122 116 109 103 103 101 97 92 86 76 67 59 53 43 24 22 18 17 20
289 280 263 247 241 239 239 246 250 259 267 245 197 177 173 178 176 173 167 154 141 134 132 125 117 107 98 82 78 95 99 91 85 78 74 76 61 76 76 55 44 31 29
286 269 253 239 236 237 238 244 243 250 252 234 197 178 173 175 173 165 157 149 142 135 128 123 115 107 100 89 81 76 96 89 80 73 63 59 54 37 58 87 114 70 50
272 258 247 237 231 232 232 236 238 244 244 228 191 172 168 164 160 160 154 150 145 138 134 131 125 120 115 104 99 94 98 92 84 76 70 65 55 35 19 58 64 61 52
252 246 238 233 227 225 225 228 234 238 234 221 190 173 164 161 163 164 160 155 151 145 145 140 138 134 133 132 122 128 113 105 92 78 62 54 57 19 353 39 56 56 60
229 224 222 222 219 219 220 226 233 235 231 215 188 172 167 165 166 162 160 155 152 149 146 140 145 144 142 141 144 263 132 119 115 105 95 66 41 18 3 25 37 38 24
227 215 211 211 214 212 214 226 234 234 227 207 184 173 166 160 156 154 154 153 154 148 140 137 136 137 136 136 112 344 134 129 123 106 87 67 40 29 14 9 33 2 321
235 216 206 206 206 207 210 224 231 228 216 201 187 174 166 161 155 156 156 156 152 148 144 141 138 133 130 118 107 74 53 6 104 70 62 68 48 42 32 33 8 328 317
238 220 208 203 200 201 209 222 223 214 206 197 186 175 168 164 162 163 161 162 166 167 161 158 153 148 139 124 114 107 85 14 38 72 60 51 31 218 104 58 349 343 9
239 220 210 203 200 200 206 217 214 202 201 195 184 176 173 172 170 173 174 176 178 176 172 168 162 156 157 159 163 163 162 170 166 138 134 166 231 151 93 132 35 40 30
243 221 212 205 200 197 200 206 203 198 200 194 186 184 185 182 177 183 178 189 184 179 178 175 171 170 173 143 82 150 161 160 129 160 167 161 151 130 96 75 52 33 25
255 226 216 208 200 195 197 198 197 197 200 195 191 190 191 185 186 179 169 65 88 110 108 107 162 141 124 129 125 107 93 86 296 227 157 141 124 98 73 54 49 43 28
Height
1512 1513 1514 1515 1516 1517 1517 1517 1518 1519 1520 1521 1522 1522 1523 1524 1526 1528 1529 1530 1531 1532 1532 1531 1530 1529 1528 1528 1528 1527 1525 1524 1523 1521 1517 1515 1512 1510 1509 1508 1508 1508 1507
1511 1511 1512 1512 1513 1513 1514 1514 1513 1514 1514 1515 1516 1517 1518 1519 1520 1521 1522 1524 1525 1525 1526 1526 1525 1524 1523 1523 1523 1521 1520 1519 1518 1516 1513 1509 1508 1505 1504 1503 1502 1501 1501
1510 1510 1510 1509 1509 1510 1510 1509 1509 1509 1509 1509 1510 1510 1511 1511 1512 1513 1513 1516 1517 1518 1516 1517 1516 1517 1518 1519 1518 1516 1515 1514 1513 1511 1511 1508 1503 1502 1500 1499 1498 1496 1495
1509 1509 1508 1508 1507 1506 1506 1505 1504 1504 1504 1503 1504 1504 1504 1505 1505 1505 1506 1508 1508 1508 1507 1507 1509 1512 1514 1514 1513 1512 1510 1509 1508 1507 1505 1504 1502 1500 1496 1495 1493 1492 1490
1509 1508 1508 1506 1505 1504 1503 1502 1500 1499 1499 1498 1498 1498 1498 1498 1499 1499 1499 1499 1500 1500 1500 1500 1502 1506 1508 1508 1508 1507 1506 1505 1504 1503 1501 1500 1497 1495 1494 1490 1489 1488 1487
1508 1507 1507 1505 1504 1503 1501 1499 1497 1495 1494 1493 1493 1492 1492 1493 1493 1493 1493 1494 1495 1494 1495 1496 1498 1500 1502 1503 1503 1503 1502 1501 1499 1498 1497 1496 1494 1492 1490 1487 1485 1484 1483
1506 1506 1505 1504 1502 1500 1498 1496 1494 1492 1491 1489 1488 1487 1487 1487 1487 1487 1488 1488 1489 1489 1491 1492 1494 1496 1497 1499 1499 1499 1498 1497 1496 1495 1494 1492 1491 1489 1487 1485 1483 1481 1480
1504 1503 1502 1501 1499 1497 1495 1493 1491 1489 1487 1485 1484 1483 1482 1482 1482 1482 1483 1483 1484 1485 1487 1488 1491 1493 1494 1495 1495 1496 1495 1493 1492 1492 1490 1489 1489 1487 1485 1484 1482 1480 1479
1501 1500 1499 1497 1496 1494 1492 1490 1488 1485 1483 1482 1480 1478 1477 1477 1477 1477 1478 1479 1480 1482 1484 1485 1487 1489 1491 1492 1492 1492 1491 1491 1490 1490 1488 1488 1487 1486 1485 1483 1482 1482 1479
1497 1496 1495 1493 1492 1490 1488 1486 1484 1482 1480 1477 1475 1474 1473 1473 1473 1474 1475 1477 1478 1480 1482 1484 1485 1486 1488 1489 1489 1489 1488 1489 1488 1487 1487 1486 1486 1485 1484 1483 1481 1480 1479
1493 1492 1491 1489 1487 1486 1484 1482 1480 1478 1476 1473 1471 1469 1468 1469 1470 1472 1473 1475 1478 1479 1481 1483 1483 1485 1486 1487 1487 1488 1487 1487 1486 1486 1486 1485 1484 1484 1484 1482 1481 1479 1478
1490 1488 1487 1485 1483 1482 1480 1479 1477 1475 1472 1470 1467 1466 1465 1466 1468 1470 1472 1475 1477 1479 1480 1481 1483 1484 1485 1485 1486 1486 1486 1486 1485 1485 1485 1484 1484 1483 1482 1481 1479 1478 1476
1486 1484 1483 1481 1480 1478 1477 1476 1475 1473 1470 1468 1465 1464 1465 1465 1466 1470 1473 1476 1477 1479 1480 1481 1482 1483 1484 1484 1485 1485 1485 1485 1485 1485 1485 1484 1484 1483 1482 1480 1479 1477 1476
1482 1481 1480 1478 1477 1476 1475 1475 1473 1472 1470 1467 1465 1464 1465 1466 1468 1472 1474 1477 1478 1479 1481 1482 1483 1484 1484 1484 1485 1485 1485 1485 1485 1485 1485 1485 1484 1483 1482 1481 1479 1477 1476
1479 1478 1477 1476 1475 1474 1474 1473 1473 1471 1469 1467 1466 1466 1467 1469 1470 1473 1476 1477 1478 1480 1481 1482 1483 1484 1485 1485 1485 1486 1486 1487 1487 1487 1486 1486 1485 1483 1482 1482 1480 1478 1477
1475 1475 1474 1473 1472 1472 1472 1472 1471 1470 1468 1467 1466 1466 1467 1469 1472 1474 1477 1478 1479 1481 1482 1484 1485 1485 1486 1486 1487 1488 1488 1489 1489 1489 1489 1488 1487 1485 1484 1483 1482 1480 1479
1471 1471 1471 1471 1470 1470 1470 1470 1470 1468 1467 1466 1466 1466 1467 1469 1471 1474 1476 1478 1480 1482 1483 1485 1486 1486 1487 1488 1489 1490 1491 1491 1491 1491 1491 1490 1489 1487 1487 1485 1484 1483 1481
1468 1468 1468 1467 1467 1467 1467 1467 1467 1467 1466 1465 1465 1465 1466 1468 1471 1473 1475 1478 1480 1482 1483 1485 1487 1488 1489 1490 1491 1492 1493 1493 1493 1492 1492 1491 1490 1489 1488 1488 1487 1485 1483
1464 1464 1464 1464 1464 1464 1464 1465 1465 1465 1465 1464 1464 1464 1465 1467 1469 1472 1474 1476 1479 1481 1483 1485 1487 1488 1490 1491 1493 1493 1494 1494 1494 1493 1493 1493 1492 1491 1490 1490 1489 1487 1486
1459 1458 1459 1459 1460 1460 1461 1462 1462 1462 1462 1462 1463 1463 1464 1466 1468 1470 1472 1475 1477 1480 1483 1484 1486 1488 1490 1491 1492 1493 1495 1494 1495 1494 1494 1493 1492 1492 1491 1490 1489 1488 1487
1454 1453 1453 1454 1455 1456 1457 1458 1459 1459 1459 1460 1460 1461 1463 1464 1466 1468 1471 1473 1476 1479 1481 1483 1485 1487 1489 1491 1492 1493 1494 1495 1495 1495 1495 1494 1493 1492 1491 1490 1489 1488 1487
1449 1448 1448 1448 1449 1451 1453 1454 1454 1455 1456 1457 1458 1459 1461 1463 1465 1467 1469 1472 1475 1477 1480 1482 1485 1486 1488 1490 1491 1492 1493 1494 1495 1495 1495 1493 1492 1492 1491 1491 1490 1489 1488
1443 1442 1442 1442 1444 1445 1447 1449 1450 1451 1452 1453 1455 1457 1459 1461 1463 1466 1468 1471 1474 1477 1479 1482 1484 1486 1487 1488 1490 1491 1492 1492 1493 1493 1492 1492 1492 1492 1492 1491 1491 1490 1489
1436 1435 1436 1437 1438 1440 1442 1444 1446 1447 1449 1450 1452 1454 1457 1459 1462 1464 1467 1469 1472 1475 1478 1480 1482 1484 1486 1488 1489 1490 1490 1491 1491 1492 1492 1492 1492 1493 1493 1492 1492 1491 1489
1430 1428 1428 1429 1431 1433 1436 1439 1441 1443 1445 1447 1449 1452 1454 1457 1459 1462 1464 1467 1470 1473 1476 1478 1480 1483 1485 1487 1488 1489 1490 1491 1491 1491 1493 1493 1494 1494 1494 1493 1493 1491 1490
1423 1421 1421 1422 1425 1427 1430 1433 1436 1439 1441 1444 1446 1449 1452 1454 1456 1459 1461 1463 1467 1469 1472 1476 1479 1481 1483 1484 1486 1487 1488 1489 1490 1491 1493 1494 1494 1494 1494 1493 1492 1491 1490